Weather in Hollywood

United States     26°02′29″N   80°11′33″W
temp.,
°C
wind,
m/s
gust,
m/s
humid.,
%
clouds,
%
prec.,
mm/h
press.,
hPa
HPBL,
m
6 may, thu
thu623:00+29sse336134 0.0 1018729
02:00+28sse22630 0.0 1017669
05:00+27sse33662 0.0 1016628
08:00+27s23675 0.0 1018795
11:00+31sse32516 0.0 10181489
14:00+33se654356 0.0 10161895
17:00+29sse346152 5.1 1015524
20:00+24ene777854 29.6 1017364
7 may, fri
fri723:00+26s45660 3.1 1017196
02:00+26sw34710 3.1 1015270
05:00+25wnw35750 0.2 1015386
08:00+25wnw35700 0.2 1016359
11:00+29wnw34493 0.0 10161262
14:00+34wnw363325 0.0 10142688
17:00+31e234799 1.8 1013975
20:00+28e666079 2.5 1015597
8 may, sat
sat823:00+26ne44670 0.1 1016495
02:00+26ne556719 0.1 1016917
05:00+25ene556027 0.0 10161091
08:00+26ene665575 0.0 10171171
11:00+27e665488 0.0 10191242
14:00+27ene655499 0.0 10191290
17:00+27e76524 0.0 10181137
20:00+26e665632 0.0 10181217
9 may, sun
sun923:00+26e665984 0.0 10191251
02:00+26e6761100 0.0 10191301
05:00+25ese666694 0.1 1018863
08:00+26ese676813 0.3 1020910
11:00+28ese665938 0.3 10211337
14:00+29ese765562 0.6 10191516
17:00+29ese665623 0.3 10181455
20:00+27ese676420 0.4 10191107
10 may, mon
mon1023:00+27ese686628 0.0 10191123
02:00+27se6864100 0.1 10181292
05:00+27se6761100 0.1 10171382
08:00+27sse5766100 0.4 1018774
11:00+30sse564712 0.1 10191652
14:00+32se66485 0.1 10171831
17:00+32se75483 0.0 10161360
20:00+29se666065 0.0 1017938